TimePST,TemperatureF,Dew PointF,Humidity,Sea Level PressureIn,VisibilityMPH,Wind Direction,Wind SpeedMPH,Gust SpeedMPH,PrecipitationIn,Events,Conditions,WindDirDegrees,DateUTC
12:53 AM,30.9,19.0,61,30.27,10.0,WNW,11.5,-,N/A,,Clear,300,2014-01-04 08:53:00
1:53 AM,26.1,18.0,71,30.30,10.0,NNW,6.9,-,N/A,,Clear,330,2014-01-04 09:53:00
2:53 AM,26.1,18.0,71,30.32,10.0,NW,5.8,-,N/A,,Clear,320,2014-01-04 10:53:00
3:53 AM,28.0,17.1,63,30.32,10.0,Calm,Calm,-,N/A,,Clear,0,2014-01-04 11:53:00
4:53 AM,21.0,15.1,78,30.35,10.0,Calm,Calm,-,N/A,,Clear,0,2014-01-04 12:53:00
5:53 AM,28.0,17.1,63,30.36,10.0,WNW,8.1,-,N/A,,Clear,300,2014-01-04 13:53:00
6:53 AM,21.0,14.0,74,30.38,10.0,WNW,3.5,-,N/A,,Clear,300,2014-01-04 14:53:00
7:53 AM,14.0,10.0,84,30.41,10.0,NW,3.5,-,N/A,,Clear,310,2014-01-04 15:53:00
8:53 AM,24.1,17.1,75,30.42,10.0,Calm,Calm,-,N/A,,Clear,0,2014-01-04 16:53:00
9:53 AM,30.0,19.9,66,30.43,10.0,South,5.8,-,N/A,,Clear,190,2014-01-04 17:53:00
10:53 AM,37.9,21.9,53,30.43,10.0,WSW,3.5,-,N/A,,Clear,250,2014-01-04 18:53:00
11:53 AM,43.0,17.1,35,30.40,10.0,SW,11.5,-,N/A,,Clear,230,2014-01-04 19:53:00
12:53 PM,43.0,18.0,37,30.39,10.0,SW,12.7,-,N/A,,Clear,220,2014-01-04 20:53:00
1:53 PM,43.0,18.0,37,30.39,10.0,SW,12.7,-,N/A,,Clear,220,2014-01-04 21:53:00
2:53 PM,43.0,17.1,35,30.38,10.0,SW,11.5,-,N/A,,Clear,220,2014-01-04 22:53:00
3:53 PM,39.0,17.1,41,30.39,10.0,SW,4.6,-,N/A,,Clear,230,2014-01-04 23:53:00
4:53 PM,28.9,15.1,56,30.41,10.0,Calm,Calm,-,N/A,,Clear,0,2014-01-05 00:53:00
5:53 PM,26.1,15.1,63,30.40,10.0,Calm,Calm,-,N/A,,Clear,0,2014-01-05 01:53:00
6:53 PM,24.1,14.0,65,30.42,10.0,NNW,4.6,-,N/A,,Clear,330,2014-01-05 02:53:00
7:53 PM,24.1,15.1,69,30.43,10.0,North,4.6,-,N/A,,Clear,350,2014-01-05 03:53:00
8:53 PM,21.0,15.1,78,30.43,10.0,North,8.1,-,N/A,,Clear,360,2014-01-05 04:53:00
9:53 PM,21.0,15.1,78,30.43,10.0,North,6.9,-,N/A,,Clear,360,2014-01-05 05:53:00
10:53 PM,19.0,14.0,81,30.45,10.0,North,5.8,-,N/A,,Clear,10,2014-01-05 06:53:00
11:53 PM,21.0,16.0,81,30.47,10.0,NNE,9.2,-,N/A,,Clear,30,2014-01-05 07:53:00